| time (UTC) | temp F | wind direction | speed MPH | gust MPH | rain 1hr in | rain 24hr in | rain mn in | humidity % | barometer mb |
| 20260502214152 | 60 | 260 | 0.0 | 2.0 | 0.00 | 0.01 | 0.01 | 71 | 1013.0 |
| 20260502213123 | 60 | 260 | 0.0 | 2.0 | 0.00 | 0.01 | 0.01 | 71 | 1013.0 |
| 20260502212631 | 60 | 260 | 0.0 | 1.0 | 0.00 | 0.01 | 0.01 | 70 | 1013.4 |
| 20260502212525 | 61 | 260 | 1.0 | 3.0 | 0.00 | 0.01 | 0.01 | 69 | 1013.7 |
| 20260502210115 | 61 | 260 | 1.0 | 3.0 | 0.00 | 0.01 | 0.01 | 69 | 1013.2 |
| 20260502205107 | 61 | 261 | 0.0 | 2.0 | 0.00 | 0.01 | 0.01 | 68 | 1013.4 |
| 20260502204030 | 61 | 261 | 0.0 | 2.0 | 0.00 | 0.01 | 0.01 | 67 | 1013.4 |
| 20260502202958 | 61 | 261 | 0.0 | 1.0 | 0.00 | 0.01 | 0.01 | 66 | 1013.3 |
| 20260502202327 | 62 | 261 | 0.0 | 1.0 | 0.00 | 0.01 | 0.01 | 64 | 1013.6 |
| 20260502201952 | 62 | 261 | 0.0 | 2.0 | 0.00 | 0.01 | 0.01 | 65 | 1013.3 |
| 20260502195842 | 62 | 261 | 0.0 | 0.0 | 0.00 | 0.01 | 0.01 | 64 | 1013.6 |
| 20260502194837 | 63 | 261 | 0.0 | 0.0 | 0.00 | 0.01 | 0.01 | 64 | 1013.7 |
| 20260502193759 | 63 | 261 | 0.0 | 0.0 | 0.00 | 0.01 | 0.01 | 64 | 1013.8 |
| 20260502192723 | 63 | 261 | 0.0 | 1.0 | 0.00 | 0.01 | 0.01 | 64 | 1013.8 |
| 20260502192127 | 64 | 261 | 0.0 | 1.0 | 0.00 | 0.01 | 0.01 | 67 | 1013.7 |
| 20260502191757 | 64 | 261 | 0.0 | 1.0 | 0.00 | 0.01 | 0.01 | 66 | 1013.7 |
| 20260502185720 | 64 | 261 | 0.0 | 1.0 | 0.00 | 0.01 | 0.01 | 69 | 1013.5 |
| 20260502184708 | 65 | 261 | 0.0 | 0.0 | 0.00 | 0.01 | 0.01 | 67 | 1013.7 |
| 20260502183703 | 66 | 261 | 0.0 | 0.0 | 0.00 | 0.01 | 0.01 | 66 | 1013.7 |
| 20260502183035 | 67 | 261 | 0.0 | 3.0 | 0.00 | 0.01 | 0.01 | 64 | 1013.5 |
| 20260502182653 | 66 | 261 | 0.0 | 1.0 | 0.00 | 0.01 | 0.01 | 65 | 1013.6 |
| 20260502180620 | 68 | 261 | 0.0 | 3.0 | 0.00 | 0.01 | 0.01 | 63 | 1013.7 |
| 20260502163443 | 73 | 261 | 2.0 | 8.0 | 0.00 | 0.01 | 0.01 | 60 | 1014.1 |
| 20260502162901 | 72 | 258 | 2.0 | 6.0 | 0.00 | 0.01 | 0.01 | 57 | 1014.1 |
| 20260502162734 | 73 | 258 | 2.0 | 6.0 | 0.00 | 0.01 | 0.01 | 58 | 1014.2 |
| 20260502162528 | 72 | 263 | 2.0 | 8.0 | 0.00 | 0.01 | 0.01 | 58 | 1014.2 |
| 20260502151422 | 74 | 253 | 2.0 | 8.0 | 0.00 | 0.01 | 0.01 | 58 | 1014.6 |
| 20260502150404 | 74 | 267 | 2.0 | 6.0 | 0.00 | 0.01 | 0.01 | 58 | 1014.7 |
| 20260502130243 | 71 | 261 | 5.0 | 11.0 | 0.00 | 0.01 | 0.01 | 63 | 1015.9 |
| 20260502123204 | 72 | 270 | 5.0 | 11.0 | 0.00 | 0.01 | 0.01 | 59 | 1016.2 |
| 20260502122650 | 71 | 263 | 5.0 | 11.0 | 0.00 | 0.01 | 0.01 | 60 | 1016.2 |
| 20260502121216 | 72 | 248 | 3.0 | 8.0 | 0.00 | 0.01 | 0.01 | 60 | 1016.3 |
| 20260502120133 | 72 | 253 | 4.0 | 9.0 | 0.00 | 0.01 | 0.01 | 60 | 1016.3 |
| 20260502115104 | 72 | 282 | 4.0 | 10.0 | 0.00 | 0.01 | 0.01 | 60 | 1016.5 |
| 20260502114056 | 71 | 259 | 5.0 | 10.0 | 0.00 | 0.01 | 0.01 | 59 | 1016.6 |
| 20260502113032 | 72 | 259 | 3.0 | 8.0 | 0.00 | 0.01 | 0.01 | 59 | 1016.6 |
| 20260502112430 | 71 | 248 | 4.0 | 12.0 | 0.00 | 0.01 | 0.01 | 60 | 1016.7 |
| 20260502112102 | 72 | 265 | 3.0 | 9.0 | 0.00 | 0.01 | 0.01 | 58 | 1016.7 |
| 20260502110024 | 70 | 272 | 4.0 | 9.0 | 0.00 | 0.01 | 0.01 | 61 | 1016.7 |
| 20260502104954 | 70 | 266 | 3.0 | 7.0 | 0.00 | 0.01 | 0.01 | 61 | 1016.7 |
| 20260502104322 | 71 | 270 | 3.0 | 6.0 | 0.00 | 0.01 | 0.01 | 56 | 1016.8 |
| 20260502104004 | 70 | 266 | 4.0 | 8.0 | 0.00 | 0.01 | 0.01 | 62 | 1016.9 |
| 20260502101910 | 71 | 236 | 2.0 | 7.0 | 0.00 | 0.01 | 0.01 | 51 | 1016.9 |
| 20260502100907 | 70 | 225 | 1.0 | 7.0 | 0.00 | 0.01 | 0.01 | 53 | 1016.8 |
| 20260502090809 | 63 | 231 | 0.0 | 2.0 | 0.00 | 0.01 | 0.01 | 64 | 1017.2 |
| 20260502090254 | 62 | 231 | 1.0 | 3.0 | 0.01 | 0.01 | 0.01 | 64 | 1017.3 |
| 20260502090129 | 59 | 231 | 1.0 | 3.0 | 0.01 | 0.01 | 0.01 | 73 | 1017.4 |
| 20260502071527 | 64 | 231 | 3.0 | 6.0 | 0.00 | 0.00 | 0.00 | 46 | 1017.4 |
| 20260502070501 | 63 | 232 | 3.0 | 7.0 | 0.00 | 0.00 | 0.00 | 48 | 1017.5 |
| 20260502065446 | 63 | 238 | 2.0 | 7.0 | 0.00 | 0.00 | 0.00 | 47 | 1017.6 |
| 20260502064434 | 62 | 226 | 2.0 | 6.0 | 0.00 | 0.00 | 0.00 | 52 | 1017.6 |
| 20260502063409 | 61 | 226 | 1.0 | 3.0 | 0.00 | 0.00 | 0.00 | 54 | 1017.7 |
| 20260502062354 | 60 | 226 | 0.0 | 0.0 | 0.00 | 0.00 | 0.00 | 55 | 1017.5 |
| 20260502061344 | 59 | 226 | 0.0 | 0.0 | 0.00 | 0.00 | 0.00 | 56 | 1017.6 |
| 20260502060332 | 57 | 226 | 0.0 | 3.0 | 0.00 | 0.00 | 0.00 | 58 | 1017.5 |
| 20260502055335 | 56 | 226 | 1.0 | 3.0 | 0.00 | 0.00 | 0.00 | 59 | 1017.3 |
| 20260502054320 | 56 | 226 | 0.0 | 2.0 | 0.00 | 0.00 | 0.00 | 58 | 1017.3 |
| 20260502053724 | 51 | 226 | 0.0 | 3.0 | 0.00 | 0.00 | 0.00 | 68 | 1017.3 |
| 20260502053407 | 54 | 226 | 0.0 | 2.0 | 0.00 | 0.00 | 0.00 | 63 | 1017.3 |
| 20260502051253 | 48 | 226 | 0.0 | 1.0 | 0.00 | 0.00 | 0.00 | 73 | 1017.4 |
| 20260502050224 | 47 | 226 | 0.0 | 0.0 | 0.00 | 0.00 | 0.00 | 73 | 1017.5 |
| 20260502045213 | 47 | 226 | 0.0 | 0.0 | 0.00 | 0.00 | 0.00 | 73 | 1017.4 |
| 20260502044143 | 46 | 226 | 0.0 | 0.0 | 0.00 | 0.00 | 0.00 | 73 | 1017.6 |
| 20260502043647 | 46 | 226 | 0.0 | 1.0 | 0.00 | 0.00 | 0.00 | 73 | 1017.6 |
| 20260502043530 | 47 | 226 | 0.0 | 0.0 | 0.00 | 0.00 | 0.00 | 71 | 1017.5 |
| 20260502043320 | 46 | 226 | 0.0 | 0.0 | 0.00 | 0.00 | 0.00 | 72 | 1017.5 |
| 20260502035040 | 47 | 226 | 0.0 | 0.0 | 0.00 | 0.00 | 0.00 | 70 | 1017.7 |
| 20260502034402 | 49 | 226 | 0.0 | 0.0 | 0.00 | 0.00 | 0.00 | 67 | 1017.9 |
| 20260502034033 | 47 | 226 | 0.0 | 0.0 | 0.00 | 0.00 | 0.00 | 69 | 1017.8 |
| 20260502031959 | 49 | 226 | 0.0 | 0.0 | 0.00 | 0.00 | 0.00 | 67 | 1017.9 |
| 20260502030927 | 49 | 226 | 0.0 | 0.0 | 0.00 | 0.00 | 0.00 | 67 | 1018.0 |
| 20260502025912 | 49 | 226 | 0.0 | 1.0 | 0.00 | 0.00 | 0.00 | 65 | 1018.1 |
| 20260502024854 | 52 | 226 | 0.0 | 1.0 | 0.00 | 0.00 | 0.00 | 62 | 1018.1 |
| 20260502023834 | 51 | 226 | 0.0 | 2.0 | 0.00 | 0.00 | 0.00 | 62 | 1018.1 |
| 20260502022817 | 51 | 226 | 0.0 | 1.0 | 0.00 | 0.00 | 0.00 | 63 | 1018.2 |
| 20260502021815 | 51 | 226 | 0.0 | 1.0 | 0.00 | 0.00 | 0.00 | 62 | 1018.2 |
| 20260502020802 | 51 | 226 | 0.0 | 1.0 | 0.00 | 0.00 | 0.00 | 61 | 1018.2 |
| 20260502020714 | 52 | 226 | 0.0 | 1.0 | 0.00 | 0.00 | 0.00 | 61 | 1018.3 |
| 20260502014749 | 52 | 226 | 0.0 | 0.0 | 0.00 | 0.00 | 0.00 | 59 | 1018.3 |
| 20260502013745 | 53 | 226 | 0.0 | 1.0 | 0.00 | 0.00 | 0.00 | 59 | 1018.4 |
| 20260502012720 | 53 | 226 | 0.0 | 1.0 | 0.00 | 0.00 | 0.00 | 59 | 1018.5 |
| 20260502011725 | 53 | 226 | 0.0 | 1.0 | 0.00 | 0.00 | 0.00 | 58 | 1018.6 |
| 20260502010708 | 53 | 226 | 0.0 | 1.0 | 0.00 | 0.00 | 0.00 | 58 | 1018.7 |
| 20260502005645 | 54 | 226 | 0.0 | 0.0 | 0.00 | 0.00 | 0.00 | 56 | 1018.8 |
| 20260502004626 | 55 | 226 | 0.0 | 2.0 | 0.00 | 0.00 | 0.00 | 55 | 1018.9 |
| 20260502003556 | 56 | 226 | 0.0 | 1.0 | 0.00 | 0.00 | 0.00 | 53 | 1019.0 |
| 20260502002556 | 56 | 226 | 0.0 | 2.0 | 0.00 | 0.00 | 0.00 | 54 | 1019.1 |
| 20260502001554 | 56 | 226 | 0.0 | 2.0 | 0.00 | 0.00 | 0.00 | 54 | 1019.2 |
| 20260502000603 | 55 | 226 | 0.0 | 2.0 | 0.00 | 0.00 | 0.00 | 55 | 1019.2 |
| 20260501235552 | 55 | 226 | 0.0 | 1.0 | 0.00 | 0.00 | 0.00 | 57 | 1019.4 |
| 20260501234552 | 55 | 226 | 0.0 | 2.0 | 0.00 | 0.00 | 0.00 | 57 | 1019.4 |
| 20260501233548 | 55 | 226 | 0.0 | 1.0 | 0.00 | 0.00 | 0.00 | 57 | 1019.5 |
| 20260501232547 | 55 | 226 | 0.0 | 2.0 | 0.00 | 0.00 | 0.00 | 57 | 1019.6 |
| 20260501231547 | 56 | 226 | 0.0 | 0.0 | 0.00 | 0.00 | 0.00 | 56 | 1019.6 |
| 20260501230545 | 56 | 226 | 0.0 | 1.0 | 0.00 | 0.00 | 0.00 | 55 | 1019.7 |
| 20260501225528 | 57 | 226 | 0.0 | 1.0 | 0.00 | 0.00 | 0.00 | 54 | 1019.7 |
| 20260501224828 | 58 | 226 | 0.0 | 0.0 | 0.00 | 0.00 | 0.00 | 52 | 1019.9 |
| 20260501224532 | 58 | 226 | 0.0 | 1.0 | 0.00 | 0.00 | 0.00 | 53 | 1019.7 |
| 20260501224505 | 57 | 226 | 0.0 | 0.0 | 0.00 | 0.00 | 0.00 | 53 | 1019.8 |
| 20260501221428 | 57 | 226 | 0.0 | 0.0 | 0.00 | 0.00 | 0.00 | 52 | 1019.9 |
| 20260501220429 | 57 | 226 | 0.0 | 0.0 | 0.00 | 0.00 | 0.00 | 53 | 1019.9 |
| 20260501215416 | 57 | 226 | 0.0 | 0.0 | 0.00 | 0.00 | 0.00 | 53 | 1020.0 |
| 20260501214429 | 56 | 226 | 0.0 | 0.0 | 0.00 | 0.00 | 0.00 | 55 | 1020.1 |
| 20260501214415 | 56 | 226 | 0.0 | 0.0 | 0.00 | 0.00 | 0.00 | 54 | 1020.1 |